TimeCDT,TemperatureF,Dew PointF,Humidity,Sea Level PressureIn,VisibilityMPH,Wind Direction,Wind SpeedMPH,Gust SpeedMPH,PrecipitationIn,Events,Conditions,WindDirDegrees,DateUTC
12:32 AM,68.0,66.0,93,29.99,1.8,NNW,8.1,17.3,0.15,Rain-Thunderstorm,Heavy Rain,330,2013-07-15 05:32:00
12:37 AM,66.9,66.0,97,29.99,0.8,WNW,4.6,-,0.30,Rain-Thunderstorm,Heavy Thunderstorms and Rain,300,2013-07-15 05:37:00
12:45 AM,66.9,64.9,93,29.99,0.8,NNW,5.8,-,0.45,Rain-Thunderstorm,Heavy Thunderstorms and Rain,340,2013-07-15 05:45:00
12:53 AM,66.9,64.9,93,29.94,1.0,North,16.1,23.0,0.63,Rain,Heavy Rain,10,2013-07-15 05:53:00
12:58 AM,66.9,64.9,93,29.99,0.8,NNE,18.4,24.2,0.26,Rain-Thunderstorm,Heavy Rain,30,2013-07-15 05:58:00
1:10 AM,66.9,64.9,93,29.99,0.8,NE,9.2,23.0,0.74,Rain-Thunderstorm,Heavy Rain,50,2013-07-15 06:10:00
1:17 AM,66.9,64.9,93,29.98,0.8,ENE,16.1,23.0,0.99,Rain,Heavy Rain,60,2013-07-15 06:17:00
1:27 AM,66.9,64.9,93,29.95,1.2,East,20.7,28.8,1.11,Rain,Heavy Rain,80,2013-07-15 06:27:00
1:34 AM,66.9,64.9,93,29.96,1.5,East,15.0,28.8,1.19,Rain,Heavy Rain,80,2013-07-15 06:34:00
1:42 AM,66.9,64.9,93,29.96,3.0,ENE,15.0,21.9,1.21,Rain,Rain,70,2013-07-15 06:42:00
1:49 AM,66.2,64.4,94,29.96,4.0,ENE,13.8,-,1.21,Rain,Rain,70,2013-07-15 06:49:00
1:53 AM,66.9,64.9,93,29.92,4.0,ENE,12.7,-,1.21,Rain,Light Rain,60,2013-07-15 06:53:00
1:59 AM,66.9,64.9,93,29.97,6.0,ENE,9.2,18.4,0.00,Rain,Light Rain,60,2013-07-15 06:59:00
2:12 AM,66.9,64.9,93,29.96,9.0,East,10.4,18.4,0.00,,Overcast,80,2013-07-15 07:12:00
2:46 AM,68.0,66.0,93,29.96,10.0,East,11.5,25.3,0.00,,Overcast,90,2013-07-15 07:46:00
2:53 AM,68.0,64.9,90,29.90,10.0,East,9.2,-,0.00,,Overcast,90,2013-07-15 07:53:00
3:23 AM,68.0,64.9,90,29.96,5.0,East,8.1,18.4,0.02,Rain,Light Rain,80,2013-07-15 08:23:00
3:35 AM,66.9,64.9,93,29.96,8.0,ENE,11.5,-,0.02,Rain,Light Rain,70,2013-07-15 08:35:00
3:53 AM,68.0,66.0,93,29.91,8.0,ENE,11.5,-,0.02,Rain,Light Rain,70,2013-07-15 08:53:00
4:53 AM,66.9,64.9,93,29.92,7.0,ESE,10.4,20.7,0.01,Rain,Light Rain,110,2013-07-15 09:53:00
5:06 AM,66.9,64.9,93,29.97,7.0,ENE,9.2,-,0.00,Rain,Light Rain,60,2013-07-15 10:06:00
5:28 AM,66.9,64.9,93,29.96,6.0,ENE,12.7,-,0.00,Rain,Light Rain,60,2013-07-15 10:28:00
5:53 AM,66.9,64.9,93,29.93,8.0,WNW,8.1,-,0.00,Rain,Light Rain,300,2013-07-15 10:53:00
6:03 AM,66.9,64.9,93,29.97,1.8,NW,9.2,-,0.16,Rain,Heavy Rain,320,2013-07-15 11:03:00
6:10 AM,66.9,64.0,90,29.98,0.8,North,8.1,-,0.33,Rain,Heavy Rain,350,2013-07-15 11:10:00
6:14 AM,66.0,64.0,93,29.98,1.0,NNW,6.9,-,0.39,Rain,Heavy Rain,340,2013-07-15 11:14:00
6:27 AM,66.0,64.9,96,29.99,2.0,North,8.1,-,0.51,Rain,Heavy Rain,10,2013-07-15 11:27:00
6:45 AM,66.9,64.9,93,29.98,5.0,NE,8.1,-,0.56,Rain,Light Rain,40,2013-07-15 11:45:00
6:53 AM,66.9,64.9,93,29.94,4.0,North,9.2,17.3,0.58,Rain,Rain,10,2013-07-15 11:53:00
7:04 AM,66.9,64.9,93,29.98,2.5,NNE,10.4,19.6,0.04,Rain,Rain,20,2013-07-15 12:04:00
7:11 AM,66.9,64.9,93,29.99,2.0,NNE,11.5,-,0.09,Rain,Heavy Rain,20,2013-07-15 12:11:00
7:21 AM,-9999,-9999,N/A,29.99,2.0,North,8.1,18.4,0.17,Rain,Heavy Rain,10,2013-07-15 12:21:00
7:33 AM,-9999,-9999,N/A,30.00,1.8,NNW,5.8,-,0.26,Rain,Heavy Rain,340,2013-07-15 12:33:00
7:44 AM,-9999,-9999,N/A,30.00,1.0,NNE,10.4,-,0.39,Rain,Heavy Rain,30,2013-07-15 12:44:00
7:53 AM,-9999,-9999,N/A,30.00,1.0,NNE,8.1,-,0.47,Rain,Heavy Rain,20,2013-07-15 12:53:00
8:08 AM,-9999,-9999,N/A,30.00,1.0,NNE,6.9,-,0.13,Rain,Heavy Rain,30,2013-07-15 13:08:00
8:20 AM,-9999,-9999,N/A,30.00,0.8,NNE,8.1,-,0.29,Rain,Heavy Rain,30,2013-07-15 13:20:00
8:31 AM,-9999,-9999,N/A,30.00,0.8,NNE,9.2,-,0.49,Rain,Heavy Rain,20,2013-07-15 13:31:00
8:53 AM,-9999,-9999,N/A,30.02,0.5,NNE,4.6,-,0.80,Rain,Heavy Rain,30,2013-07-15 13:53:00
9:12 AM,-9999,-9999,N/A,30.03,0.8,NNW,5.8,-,0.25,Rain,Heavy Rain,340,2013-07-15 14:12:00
9:19 AM,-9999,-9999,N/A,30.04,1.0,North,3.5,-,0.33,Rain,Heavy Rain,360,2013-07-15 14:19:00
9:21 AM,-9999,-9999,N/A,30.04,0.8,North,4.6,-,0.35,Rain,Heavy Rain,10,2013-07-15 14:21:00
9:33 AM,-9999,-9999,N/A,30.03,1.0,NNE,5.8,-,0.48,Rain,Heavy Rain,30,2013-07-15 14:33:00
9:49 AM,-9999,-9999,N/A,30.03,1.8,NE,6.9,-,0.57,Rain,Rain,40,2013-07-15 14:49:00
9:53 AM,-9999,-9999,N/A,30.03,1.5,NE,8.1,-,0.60,Rain,Heavy Rain,40,2013-07-15 14:53:00
10:12 AM,-9999,-9999,N/A,30.03,1.2,NE,9.2,-,0.12,Rain,Heavy Rain,40,2013-07-15 15:12:00
10:53 AM,-9999,-9999,N/A,30.04,1.0,ENE,10.4,-,0.47,Rain,Heavy Rain,60,2013-07-15 15:53:00
11:07 AM,-9999,-9999,N/A,30.04,2.0,ENE,6.9,-,0.07,Rain,Rain,60,2013-07-15 16:07:00
11:20 AM,-9999,-9999,N/A,30.05,1.5,ENE,6.9,-,0.12,Rain,Heavy Rain,70,2013-07-15 16:20:00
11:22 AM,-9999,-9999,N/A,30.05,1.2,ENE,5.8,-,0.13,Rain,Heavy Rain,70,2013-07-15 16:22:00
11:29 AM,-9999,-9999,N/A,30.04,1.5,NE,6.9,-,0.16,Rain,Heavy Rain,50,2013-07-15 16:29:00
11:42 AM,-9999,-9999,N/A,30.05,2.0,ENE,6.9,-,0.18,Rain,Rain,60,2013-07-15 16:42:00
11:53 AM,69.1,66.9,93,30.01,4.0,ENE,5.8,-,0.18,Rain,Light Rain,60,2013-07-15 16:53:00
12:13 PM,70.0,66.9,90,30.05,1.8,East,6.9,-,0.02,Rain,Rain,80,2013-07-15 17:13:00
12:20 PM,70.0,66.9,90,30.05,2.5,East,5.8,-,0.03,Rain,Light Rain,90,2013-07-15 17:20:00
12:28 PM,70.0,68.0,93,30.05,4.0,East,5.8,-,0.03,Rain,Light Rain,80,2013-07-15 17:28:00
12:53 PM,71.1,68.0,90,30.01,7.0,East,5.8,-,0.03,Rain,Light Rain,90,2013-07-15 17:53:00
1:09 PM,71.1,68.0,90,30.05,7.0,East,5.8,-,0.00,Rain,Light Rain,90,2013-07-15 18:09:00
1:40 PM,71.1,68.0,90,30.05,3.0,East,9.2,-,0.00,Rain,Light Rain,90,2013-07-15 18:40:00
1:53 PM,72.0,69.1,91,30.00,5.0,East,5.8,-,0.00,Rain,Light Rain,90,2013-07-15 18:53:00
2:36 PM,72.0,69.1,91,30.04,9.0,East,9.2,-,0.00,Rain,Light Rain,90,2013-07-15 19:36:00
2:53 PM,72.0,69.1,91,30.01,8.0,East,9.2,-,0.00,Rain,Light Rain,100,2013-07-15 19:53:00
3:23 PM,-9999,-9999,N/A,30.03,10.0,East,8.1,-,0.00,,Overcast,100,2013-07-15 20:23:00
3:53 PM,-9999,-9999,N/A,30.02,10.0,East,8.1,-,0.00,,Overcast,100,2013-07-15 20:53:00
4:12 PM,-9999,-9999,N/A,30.02,10.0,East,6.9,-,N/A,,Overcast,100,2013-07-15 21:12:00
4:53 PM,-9999,-9999,N/A,30.02,10.0,East,5.8,-,N/A,,Overcast,80,2013-07-15 21:53:00
5:53 PM,-9999,-9999,N/A,30.02,7.0,East,5.8,-,N/A,,Overcast,90,2013-07-15 22:53:00
6:53 PM,-9999,-9999,N/A,30.02,5.0,East,5.8,-,0.00,Rain,Light Rain,90,2013-07-15 23:53:00
7:32 PM,73.0,71.1,93,30.03,4.0,ESE,5.8,-,0.00,,Mostly Cloudy,110,2013-07-16 00:32:00
7:53 PM,73.0,70.0,90,30.03,5.0,East,5.8,-,0.00,Rain,Light Rain,90,2013-07-16 00:53:00
8:24 PM,73.0,70.0,90,30.05,6.0,East,4.6,-,0.00,,Overcast,90,2013-07-16 01:24:00
8:34 PM,73.0,70.0,90,30.05,5.0,East,5.8,-,0.00,,Overcast,90,2013-07-16 01:34:00
8:53 PM,73.0,70.0,90,30.05,7.0,ENE,5.8,-,0.00,Rain,Light Rain,70,2013-07-16 01:53:00
9:18 PM,73.0,71.1,93,30.05,5.0,East,5.8,-,0.00,Rain,Light Rain,80,2013-07-16 02:18:00
9:53 PM,72.0,70.0,93,30.06,8.0,East,6.9,-,0.00,Rain,Light Rain,90,2013-07-16 02:53:00
10:53 PM,70.0,66.9,90,30.08,10.0,East,6.9,-,0.00,,Overcast,100,2013-07-16 03:53:00
11:53 PM,70.0,66.9,90,30.04,10.0,East,6.9,-,N/A,,Overcast,80,2013-07-16 04:53:00